Weather Roundup
Issued by NWS Chicago, IL

Home | Current Version | Previous Version | Graphics & Text | Print | Product List | Glossary On
Versions: 1 2 3 4 5 6 7 8 9 10 11 12 13 14 15 16 17 18 19 20 21 22 23 24 25 26 27 28 29 30 31 32 33 34 35 36 37 38 39 40 41 42 43 44 45 46 47 48 49 50
000
NZUS59 KLOT 171158
HRRLOT

CHICAGO AREA WEATHER ROUNDUP
NATIONAL WEATHER SERVICE CHICAGO/ROMEOVILLE IL
700 AM CDT WED SEP 17 2014

NOTE: "FAIR" INDICATES FEW OR NO CLOUDS BELOW 12,000 FEET WITH NO
SIGNIFICANT WEATHER AND/OR OBSTRUCTIONS TO VISIBILITY.

* THESE STATIONS ARE NOT UNDER NWS QUALITY CONTROL. THEY ALSO MAY NOT
  REPORT WEATHER SUCH AS PRECIPITATION OR FOG.

ILZ005-006-012>014-019>023-171300-
NORTHEAST ILLINOIS

CITY           SKY/WX    TMP DP  RH WIND       PRES   REMARKS
OHARE          MOCLDY    48  44  86 S3        30.05R
6HR MIN TEMP:  48; 6HR MAX TEMP:  55;

MIDWAY         PTCLDY    50  45  83 SW5       30.06R
6HR MIN TEMP:  49; 6HR MAX TEMP:  57;

AURORA         PTCLDY    40  37  89 CALM      30.06S
6HR MIN TEMP:  39; 6HR MAX TEMP:  42;

WAUKEGAN       CLEAR     45  44  97 CALM      30.04S
6HR MIN TEMP:  42; 6HR MAX TEMP:  48;

DUPAGE AIRPORT PTCLDY    44  42  93 CALM      30.05R
6HR MIN TEMP:  42; 6HR MAX TEMP:  46;

WHEELING       PTCLDY    47  43  86 CALM      30.06R
6HR MIN TEMP:  45; 6HR MAX TEMP:  50;

NORTHERLY IS     N/A     53  44  71 W8          N/A
$$

WIZ051-052-058>065-066-070>072-171300-
SOUTHEAST WISCONSIN

CITY           SKY/WX    TMP DP  RH WIND       PRES   REMARKS
MILWAUKEE      PTCLDY    48  41  76 CALM      30.04S
6HR MIN TEMP:  48; 6HR MAX TEMP:  50;

KENOSHA*       FOG       43  43 100 CALM      30.05S VSB 1
WAUKESHA       CLEAR     43  41  93 S3        30.05S
$$

INZ001>003-010>013-019-020-171300-
NORTHWEST INDIANA

CITY           SKY/WX    TMP DP  RH WIND       PRES   REMARKS
GARY*          MOCLDY    45  43  93 S5        30.07R
MICHIGAN CITY* NOT AVBL
RENSSELAER*    NOT AVBL
$$

LMZ740>746-171300-
SOUTHERN LAKE MICHIGAN

STATION/POSITION TIME  SKY/WX   TEMP WIND        PRES    VSBY
                                AIR  DIR/SP/G
                 (UTC)          (F)  (DEG/KT/KT) (MB)    (MI)
HARRISON CRIB    1100            55  190/  8/  9   N/A
BURNHAM HARBOR   1100            53  270/  5       N/A
CALUMET HARBOR   1100            51  210/  4/  5 1016.5R
BURNS HARBOR     NOT AVBL
MICHIGAN CITY    1100            50  130/ 10/ 11   N/A
$$

ABBREVIATIONS USED IN REMARKS
   TC - TEMPERATURE IN CELSIUS
  WCI - WIND CHILL INDEX
   HX - HEAT INDEX
  VSB - VISIBILITY
$$



USA.gov is the U.S. government's official web portal to all federal, state and local government web resources and services.